TimeCDT,TemperatureF,Dew PointF,Humidity,Sea Level PressureIn,VisibilityMPH,Wind Direction,Wind SpeedMPH,Gust SpeedMPH,PrecipitationIn,Events,Conditions,WindDirDegrees,DateUTC
12:53 AM,62.1,54.0,75,30.14,10.0,ESE,3.5,-,N/A,,Mostly Cloudy,110,2013-04-27 05:53:00
1:53 AM,61.0,54.0,78,30.11,10.0,East,3.5,-,N/A,,Overcast,90,2013-04-27 06:53:00
2:53 AM,61.0,53.1,75,30.09,10.0,East,3.5,-,N/A,,Overcast,90,2013-04-27 07:53:00
3:53 AM,61.0,55.0,81,30.07,10.0,SSE,4.6,-,N/A,,Scattered Clouds,160,2013-04-27 08:53:00
4:10 AM,60.8,55.4,82,30.08,10.0,SSE,3.5,-,N/A,,Mostly Cloudy,160,2013-04-27 09:10:00
4:24 AM,60.8,55.4,82,30.07,10.0,SSE,4.6,-,N/A,,Scattered Clouds,160,2013-04-27 09:24:00
4:35 AM,60.8,57.2,88,30.07,10.0,South,6.9,-,N/A,,Mostly Cloudy,170,2013-04-27 09:35:00
4:53 AM,62.1,57.9,86,30.06,10.0,SSW,3.5,-,N/A,,Overcast,200,2013-04-27 09:53:00
5:53 AM,64.9,62.1,90,30.08,9.0,SW,3.5,-,N/A,,Overcast,230,2013-04-27 10:53:00
6:32 AM,64.4,62.6,94,30.10,9.0,WSW,4.6,-,N/A,,Overcast,250,2013-04-27 11:32:00
6:53 AM,66.0,63.0,90,30.09,8.0,SW,6.9,-,N/A,,Overcast,220,2013-04-27 11:53:00
7:41 AM,66.2,64.4,94,30.08,10.0,SSW,11.5,18.4,N/A,,Overcast,200,2013-04-27 12:41:00
7:53 AM,66.9,64.0,90,30.08,9.0,SSW,9.2,18.4,N/A,,Overcast,210,2013-04-27 12:53:00
8:34 AM,68.0,64.4,88,30.10,10.0,SW,8.1,-,0.00,Rain,Light Rain,230,2013-04-27 13:34:00
8:53 AM,68.0,64.0,87,30.09,10.0,SSW,6.9,-,0.00,Rain,Light Rain,210,2013-04-27 13:53:00
9:53 AM,71.1,64.0,78,30.07,10.0,SSW,12.7,-,0.00,,Overcast,210,2013-04-27 14:53:00
10:09 AM,71.6,64.4,78,30.07,10.0,SW,9.2,20.7,0.00,Rain,Light Rain,220,2013-04-27 15:09:00
10:26 AM,71.6,62.6,73,30.08,10.0,SW,10.4,-,0.00,,Overcast,220,2013-04-27 15:26:00
10:43 AM,71.6,64.4,78,30.08,10.0,SSW,6.9,17.3,0.00,,Overcast,210,2013-04-27 15:43:00
10:53 AM,73.0,64.0,73,30.07,10.0,SSW,9.2,17.3,0.00,,Overcast,210,2013-04-27 15:53:00
11:22 AM,71.6,64.4,78,30.08,10.0,SW,11.5,-,N/A,,Overcast,220,2013-04-27 16:22:00
11:41 AM,73.4,64.4,73,30.07,10.0,SSW,8.1,-,0.00,,Overcast,210,2013-04-27 16:41:00
11:53 AM,73.9,64.9,73,30.06,10.0,SSW,8.1,-,0.00,,Overcast,210,2013-04-27 16:53:00
12:13 PM,73.4,64.4,73,30.06,10.0,SW,10.4,-,N/A,,Overcast,220,2013-04-27 17:13:00
12:34 PM,77.0,64.4,65,30.05,10.0,SSW,11.5,-,N/A,,Overcast,210,2013-04-27 17:34:00
12:53 PM,75.0,64.0,69,30.04,10.0,SSW,10.4,-,N/A,,Overcast,210,2013-04-27 17:53:00
1:53 PM,79.0,66.0,64,30.02,10.0,SSW,8.1,-,N/A,,Mostly Cloudy,200,2013-04-27 18:53:00
2:53 PM,78.1,64.0,62,30.00,10.0,SSW,15.0,20.7,N/A,,Overcast,210,2013-04-27 19:53:00
3:53 PM,79.0,64.9,62,29.97,10.0,SSW,15.0,23.0,N/A,,Mostly Cloudy,210,2013-04-27 20:53:00
4:53 PM,78.1,64.9,64,29.95,10.0,SSW,13.8,18.4,N/A,,Mostly Cloudy,200,2013-04-27 21:53:00
5:53 PM,79.0,64.9,62,29.93,10.0,SSW,10.4,19.6,N/A,,Clear,210,2013-04-27 22:53:00
6:53 PM,75.9,66.0,71,29.92,10.0,SSW,9.2,-,N/A,,Partly Cloudy,200,2013-04-27 23:53:00
7:53 PM,73.9,66.0,76,29.89,10.0,South,6.9,-,N/A,,Mostly Cloudy,190,2013-04-28 00:53:00
8:00 PM,73.4,66.2,78,29.90,10.0,SSW,8.1,-,0.00,Rain-Thunderstorm,Light Rain,200,2013-04-28 01:00:00
8:53 PM,71.1,66.9,87,29.96,1.2,West,10.4,35.7,0.29,Rain-Thunderstorm,Heavy Thunderstorms and Rain,260,2013-04-28 01:53:00
8:58 PM,71.6,66.2,83,29.96,0.8,NW,9.2,35.7,0.16,Rain-Thunderstorm,Heavy Thunderstorms and Rain,320,2013-04-28 01:58:00
9:01 PM,69.8,66.2,88,29.97,1.0,WNW,13.8,20.7,0.30,Rain-Thunderstorm,Heavy Thunderstorms and Rain,300,2013-04-28 02:01:00
9:21 PM,68.0,64.4,88,29.99,2.5,West,11.5,41.4,0.64,Rain-Thunderstorm,Heavy Thunderstorms and Rain,280,2013-04-28 02:21:00
9:23 PM,68.0,64.4,88,30.00,4.0,West,12.7,41.4,0.64,Rain-Thunderstorm,Light Thunderstorms and Rain,260,2013-04-28 02:23:00
9:38 PM,66.2,64.4,94,29.99,10.0,West,4.6,-,0.64,Thunderstorm,Overcast,270,2013-04-28 02:38:00
9:53 PM,66.9,64.0,90,29.98,10.0,NW,5.8,-,0.64,,Mostly Cloudy,320,2013-04-28 02:53:00
10:16 PM,66.2,64.4,94,29.99,9.0,NNE,4.6,-,N/A,,Mostly Cloudy,30,2013-04-28 03:16:00
10:27 PM,64.4,62.6,94,29.99,7.0,North,5.8,-,N/A,,Overcast,10,2013-04-28 03:27:00
10:53 PM,64.0,61.0,90,29.99,8.0,NW,4.6,-,N/A,,Overcast,320,2013-04-28 03:53:00
11:53 PM,63.0,60.1,90,29.99,8.0,Calm,Calm,-,N/A,,Overcast,0,2013-04-28 04:53:00